Location: Old Broadwell Mill Observatory
(33.8015°N, 85.8137°W)
Time: 01:25:06
(UTC-05:00)

Amateur Radio Satellites - All Passes

Search period start: 24 July 2014 00:55
Search period end: 25 July 2014 00:55
Location: Old Broadwell Mill Observatory, 33.8015°N, 85.8137°W

Satellite Date Start Highest point End Downlink Frequencies (MHz)
Time Altitude Azimuth
PCSat 24 Jul 01:04:57 01:09:49 36° 109° (ESE) 01:14:43 145.825 MHz
Oscar 19 24 Jul 01:13:12 01:16:26 17° 94° (E) 01:19:39 437.125 CW, 437.150 USB
UOSAT-12 24 Jul 01:18:13 01:22:56 74° 243° (WSW) 01:27:33 437.025 FM, 437.400 FM
Oscar 16 24 Jul 01:39:24 01:44:02 33° 98° (E) 01:48:39 437.025 USB, Beacon 2401.1428
ITAMSAT 1 24 Jul 01:49:40 01:52:56 17° 94° (E) 01:56:10 435.822 SSB
ISS 24 Jul 01:55:25 01:58:15 25° 324° (NW) 02:01:06 145.800 FM
AO-27 24 Jul 02:06:30 02:10:48 26° 96° (E) 02:15:04 436.795 MHz FM
Uribyol 2 24 Jul 02:09:35 02:14:03 29° 97° (E) 02:18:29 436.500 FM
AO-Echo 24 Jul 02:12:59 02:17:28 31° 97° (E) 02:21:48 ?
Sapphire 24 Jul 02:13:41 02:18:58 56° 298° (WNW) 02:24:18 437.095 MHz 1200 baud AX-25 AFSK
JAS-1B 24 Jul 02:44:34 02:53:24 43° 96° (E) 03:01:02 435.800 - 435.900 CW/SSB
PCSat 24 Jul 02:48:44 02:53:14 26° 305° (NW) 02:57:47 145.825 MHz
Oscar 19 24 Jul 02:51:01 02:55:57 47° 287° (WNW) 03:00:53 437.125 CW, 437.150 USB
TMSAT-1 24 Jul 03:15:49 03:20:39 35° 98° (E) 03:25:27 436.925 FM
Oscar 16 24 Jul 03:19:05 03:23:10 24° 292° (WNW) 03:27:15 437.025 USB, Beacon 2401.1428
ITAMSAT 1 24 Jul 03:27:40 03:32:36 46° 288° (WNW) 03:37:31 435.822 SSB
Gurwin Techsat 1B 24 Jul 03:36:12 03:41:32 82° 103° (ESE) 03:46:50 435.225 FM
OPAL 24 Jul 03:38:10 03:43:01 59° 72° (ENE) 03:47:53 ?
AO-27 24 Jul 03:45:45 03:50:15 31° 290° (WNW) 03:54:43 436.795 MHz FM
Uribyol 2 24 Jul 03:49:05 03:53:23 27° 291° (WNW) 03:57:39 436.500 FM
AO-Echo 24 Jul 03:51:57 03:56:03 25° 292° (WNW) 04:00:02 ?
Uosat F 24 Jul 04:05:26 04:09:17 22° 96° (E) 04:13:07 435.120 FM
JAS-1B 24 Jul 04:35:01 04:43:40 41° 295° (WNW) 04:51:19 435.800 - 435.900 CW/SSB
TMSAT-1 24 Jul 04:56:12 05:00:19 24° 292° (WNW) 05:04:26 436.925 FM
AO-7 24 Jul 05:00:53 05:09:11 68° 105° (ESE) 05:17:25 29.400 - 29.500 MHz
Gurwin Techsat 1B 24 Jul 05:19:43 05:20:44 11° 298° (WNW) 05:21:45 435.225 FM
OPAL 24 Jul 05:20:16 05:22:12 12° 265° (W) 05:24:08 ?
Uosat F 24 Jul 05:43:35 05:48:05 34° 290° (WNW) 05:52:33 435.120 FM
STRAND 1 24 Jul 05:53:06 05:57:15 25° 68° (ENE) 06:01:24 ?
Lituanica SAT-1 24 Jul 06:32:25 06:34:09 21° 38° (NE) 06:35:53 437.275 MHz beacon
Oscar 10/S400 24 Jul 06:41:27 08:03:33 31° 254° (WSW) 11:34:09 145.825 - 145.975 CW/USB, Beacon 145.810 USB
Hamsat 24 Jul 06:50:42 06:54:59 77° 283° (WNW) 06:59:17 145.90 MHz
KITSAT 1 24 Jul 06:52:47 07:00:49 70° 113° (ESE) 07:08:51 435.175 FM
PANSAT 24 Jul 06:53:04 06:56:05 22° 164° (SSE) 06:59:06 not established
AO-7 24 Jul 06:54:59 07:01:14 24° 301° (WNW) 07:07:28 29.400 - 29.500 MHz
JAS-2 24 Jul 07:08:43 07:14:50 89° 285° (WNW) 07:20:17 435.800 - 435.900 CW/SSB, 435.910 FM
MaSat-1 24 Jul 07:09:14 07:13:06 20° 56° (NE) 07:16:51 437.345 MHz
STRAND 1 24 Jul 07:31:42 07:36:15 32° 262° (W) 07:40:49 ?
Saudisat 1A 24 Jul 07:42:27 07:45:32 19° 110° (ESE) 07:48:38 436.775 MHz
SO-67 24 Jul 07:48:37 07:52:06 78° 100° (E) 07:55:33 435.3500 MHz FM
ISS 24 Jul 08:26:38 08:29:58 60° 42° (NE) 08:33:16 145.800 FM
PANSAT 24 Jul 08:32:19 08:35:53 36° 177° (S) 08:39:26 not established
MaSat-1 24 Jul 08:45:39 08:50:45 49° 253° (WSW) 08:55:32 437.345 MHz
KITSAT 1 24 Jul 08:50:26 08:56:50 25° 312° (NW) 09:03:17 435.175 FM
JAS-2 24 Jul 08:57:54 08:58:45 10° 303° (WNW) 08:59:34 435.800 - 435.900 CW/SSB, 435.910 FM
Saudisat 1A 24 Jul 09:20:48 09:24:50 35° 304° (NW) 09:28:55 436.775 MHz
Oscar 11 24 Jul 09:33:33 09:36:28 18° 95° (E) 09:39:23 145.825 FM, Beacon 2401.500 USB
HO-68 24 Jul 09:34:33 09:41:35 59° 102° (ESE) 09:48:35 435.675 MHz FM
PCSat 24 Jul 09:57:59 10:00:52 14° 50° (NE) 10:03:46 145.825 MHz
PANSAT 24 Jul 10:12:20 10:15:45 30° 190° (S) 10:19:09 not established
UKube-1 24 Jul 10:17:31 10:21:49 62° 285° (WNW) 10:26:06 145.840 MHz, 145.915 MHz
Sapphire 24 Jul 11:05:32 11:10:49 50° 61° (ENE) 11:16:02 437.095 MHz 1200 baud AX-25 AFSK
Oscar 11 24 Jul 11:08:50 11:12:40 31° 288° (WNW) 11:16:30 145.825 FM, Beacon 2401.500 USB
FUNcube-1 24 Jul 11:15:17 11:19:27 80° 283° (WNW) 11:23:38 145.950 - 145.970 MHz USB
HO-68 24 Jul 11:23:25 11:28:44 23° 298° (WNW) 11:34:02 435.675 MHz FM
PCSat 24 Jul 11:39:26 11:44:51 75° 247° (WSW) 11:50:14 145.825 MHz
PANSAT 24 Jul 11:53:26 11:55:26 14° 201° (SSW) 11:57:26 not established
Oscar 19 24 Jul 12:26:50 12:30:02 17° 66° (ENE) 12:33:14 437.125 CW, 437.150 USB
RS-15 24 Jul 12:45:39 12:54:51 30° 105° (ESE) 13:03:47 29.354 - 29.394 USB, Beacon 29.352 USB
Sapphire 24 Jul 12:50:15 12:53:46 18° 255° (WSW) 12:57:17 437.095 MHz 1200 baud AX-25 AFSK
Oscar 16 24 Jul 12:52:45 12:57:16 33° 70° (ENE) 13:01:48 437.025 USB, Beacon 2401.1428
SO-50 24 Jul 12:57:11 13:01:11 34° 113° (ESE) 13:05:16 436.795 FM
ITAMSAT 1 24 Jul 13:04:09 13:07:39 19° 66° (ENE) 13:11:10 435.822 SSB
AO-27 24 Jul 13:20:58 13:25:21 28° 69° (ENE) 13:29:43 436.795 MHz FM
AO-Echo 24 Jul 13:21:49 13:26:16 29° 69° (ENE) 13:30:45 ?
Uribyol 2 24 Jul 13:23:45 13:28:16 31° 70° (ENE) 13:32:47 436.500 FM
JAS-1B 24 Jul 13:23:50 13:30:44 28° 60° (ENE) 13:38:18 435.800 - 435.900 CW/SSB
Oscar 19 24 Jul 14:04:02 14:08:57 48° 260° (W) 14:13:53 437.125 CW, 437.150 USB
AO-7 24 Jul 14:09:49 14:12:14 12° 51° (NE) 14:14:39 29.400 - 29.500 MHz
Oscar 16 24 Jul 14:32:33 14:36:36 24° 264° (W) 14:40:41 437.025 USB, Beacon 2401.1428
TMSAT-1 24 Jul 14:32:46 14:37:38 38° 71° (ENE) 14:42:30 436.925 FM
SO-50 24 Jul 14:38:24 14:41:48 21° 309° (NW) 14:45:15 436.795 FM
ITAMSAT 1 24 Jul 14:41:46 14:46:45 46° 260° (W) 14:51:46 435.822 SSB
KITSAT 1 24 Jul 14:51:47 14:57:08 19° 44° (NE) 15:02:26 435.175 FM
Gurwin Techsat 1B 24 Jul 14:53:20 14:58:38 87° 76° (ENE) 15:03:59 435.225 FM
RS-15 24 Jul 14:55:18 15:06:22 64° 302° (WNW) 15:17:13 29.354 - 29.394 USB, Beacon 29.352 USB
AO-27 24 Jul 15:00:12 15:04:43 30° 263° (W) 15:09:15 436.795 MHz FM
AO-Echo 24 Jul 15:00:20 15:04:52 30° 264° (W) 15:09:30 ?
Uribyol 2 24 Jul 15:03:21 15:07:40 26° 263° (W) 15:12:00 436.500 FM
JAS-1B 24 Jul 15:12:08 15:20:16 66° 259° (W) 15:29:46 435.800 - 435.900 CW/SSB
Uosat F 24 Jul 15:15:16 15:19:01 21° 67° (ENE) 15:22:46 435.120 FM
UOSAT-12 24 Jul 15:25:26 15:29:59 85° 118° (ESE) 15:34:40 437.025 FM, 437.400 FM
OPAL 24 Jul 15:52:33 15:56:26 22° 98° (E) 16:00:19 ?
AO-7 24 Jul 15:55:11 16:03:23 65° 69° (ENE) 16:11:38 29.400 - 29.500 MHz
TMSAT-1 24 Jul 16:13:37 16:17:36 22° 265° (W) 16:21:37 436.925 FM
KITSAT 1 24 Jul 16:45:33 16:53:40 86° 64° (ENE) 17:01:43 435.175 FM
Uosat F 24 Jul 16:52:53 16:57:31 37° 261° (W) 17:02:11 435.120 FM
Oscar 10/S400 24 Jul 17:03:52 17:18:09 17° 150° (SSE) 17:29:42 145.825 - 145.975 CW/USB, Beacon 145.810 USB
UOSAT-12 24 Jul 17:09:31 17:10:46 11° 315° (NW) 17:12:02 437.025 FM, 437.400 FM
RS-15 24 Jul 17:14:39 17:21:25 18° 329° (NNW) 17:28:12 29.354 - 29.394 USB, Beacon 29.352 USB
JAS-2 24 Jul 17:14:48 17:21:27 32° 67° (ENE) 17:27:54 435.800 - 435.900 CW/SSB, 435.910 FM
OPAL 24 Jul 17:30:44 17:35:19 36° 291° (WNW) 17:39:57 ?
Hamsat 24 Jul 17:40:18 17:44:15 43° 74° (ENE) 17:48:13 145.90 MHz
AO-7 24 Jul 17:50:17 17:56:34 24° 264° (W) 18:02:55 29.400 - 29.500 MHz
Saudisat 1A 24 Jul 17:50:47 17:55:08 58° 59° (ENE) 17:59:27 436.775 MHz
STRAND 1 24 Jul 18:10:04 18:11:09 11° 92° (E) 18:12:15 ?
SO-67 24 Jul 18:19:37 18:21:26 14° 70° (ENE) 18:23:15 435.3500 MHz FM
KITSAT 1 24 Jul 18:43:44 18:47:59 15° 259° (W) 18:52:14 435.175 FM
JAS-2 24 Jul 18:58:31 19:06:04 50° 261° (W) 19:13:28 435.800 - 435.900 CW/SSB, 435.910 FM
Hamsat 24 Jul 19:18:59 19:20:25 12° 268° (W) 19:21:50 145.90 MHz
Saudisat 1A 24 Jul 19:33:12 19:34:10 11° 253° (WSW) 19:35:08 436.775 MHz
STRAND 1 24 Jul 19:45:40 19:50:45 68° 285° (WNW) 19:55:47 ?
SO-67 24 Jul 19:51:22 19:54:15 25° 263° (W) 19:57:09 435.3500 MHz FM
HO-68 24 Jul 19:59:33 20:05:34 30° 65° (ENE) 20:11:34 435.675 MHz FM
MaSat-1 24 Jul 20:59:32 21:00:29 11° 98° (E) 21:01:27 437.345 MHz
UKube-1 24 Jul 21:08:56 21:13:15 68° 75° (ENE) 21:17:36 145.840 MHz, 145.915 MHz
SO-50 24 Jul 21:33:27 21:35:57 14° 48° (NE) 21:38:28 436.795 FM
HO-68 24 Jul 21:46:09 21:52:56 45° 260° (W) 21:59:46 435.675 MHz FM
RS-15 24 Jul 21:49:47 21:58:54 28° 43° (NE) 22:08:12 29.354 - 29.394 USB, Beacon 29.352 USB
Oscar 11 24 Jul 21:59:25 22:03:41 67° 259° (W) 22:07:58 145.825 FM, Beacon 2401.500 USB
FUNcube-1 24 Jul 22:07:46 22:12:01 49° 75° (ENE) 22:16:11 145.950 - 145.970 MHz USB
Lituanica SAT-1 24 Jul 22:30:40 22:32:15 18° 131° (SE) 22:33:51 437.275 MHz beacon
MaSat-1 24 Jul 22:33:29 22:37:05 43° 298° (WNW) 22:41:18 437.345 MHz
SO-50 24 Jul 23:12:12 23:16:57 67° 244° (WSW) 23:21:44 436.795 FM
ISS 24 Jul 23:31:17 23:32:58 13° 126° (SE) 23:34:38 145.800 FM
FUNcube-1 24 Jul 23:47:14 23:48:36 11° 267° (W) 23:49:57 145.950 - 145.970 MHz USB
UOSAT-12 24 Jul 23:59:16 00:03:14 26° 53° (NE) 00:07:09 437.025 FM, 437.400 FM
RS-15 25 Jul 00:01:20 00:12:26 80° 245° (WSW) 00:24:00 29.354 - 29.394 USB, Beacon 29.352 USB
Lituanica SAT-1 25 Jul 00:03:56 00:04:55 12° 325° (NW) 00:05:54 437.275 MHz beacon
Sapphire 25 Jul 00:05:24 00:05:52 10° 102° (ESE) 00:06:21 437.095 MHz 1200 baud AX-25 AFSK
PCSat 25 Jul 00:35:04 00:39:24 25° 107° (ESE) 00:43:45 145.825 MHz
